User: anonymous   Login
Location: Unspecified
(0.0000°N, 0.0000°E)
Time: 00:00:45
(UTC+00:00)
Language:

IRIDE FM5 - Orbit

View from above orbital plane
View from above orbital plane
View from above satellite
View from above satellite

Ground track
Ground track

The orbit is defined by the following mean orbital elements,

1 66699U          26145.15029502 +.00000000 +00000-0 +35857-3 0 00002
2 66699  97.4203 219.0934 0005445  95.3990 264.7866 15.19785715    02
Epoch (UTC): 25 May 2026 03:36:25
Eccentricity: 0.0005445
inclination: 97.4203°
perigee height: 503 km
apogee height: 510 km
right ascension of ascending node: 219.0934°
argument of perigee: 95.3990°
revolutions per day: 15.19785715
mean anomaly at epoch: 264.7866°

The dashed part of the orbit path shows where the satellite is in the earth's shadow,  

DLR